This demonstration page uses our WeatherBlox Daily Observations layout. Learn more.

39.01783, -85.05884

Hourly Observations for June 29, 2019

Temp ( °F °C ) Dew Point ( °F °C ) Humidity (%) Winds ( mph kmh ) Pressure ( in mb ) Visibility ( mi km ) Precip ( " mm )
12:52 am 00:52 Clear 76 24.4 68 20 77 77 S 8 13 30.12 1020 10 16.09344 0 0
1:52 am 01:52 Mostly Clear 74 23.3 67 19.4 79 79 S 9 15 30.09 1019 10 16.09344 0 0
2:52 am 02:52 Clear 73 22.8 66 18.9 79 79 S 5 7 30.12 1020 10 16.09344 0 0
3:52 am 03:52 Clear 72 22.2 66 18.9 82 82 Calm 30.09 1019 10 16.09344 0 0
4:52 am 04:52 Clear 71 21.7 66 18.9 84 84 Calm 30.09 1019 10 16.09344 0 0
5:52 am 05:52 Mostly Clear 70 21.1 65 18.3 84 84 SSW 6 9 30.09 1019 10 16.09344 0 0
6:52 am 06:52 Partly Cloudy 70 21.1 65 18.3 84 84 Calm 30.12 1020 10 16.09344 0 0
7:52 am 07:52 Mostly Sunny 73 22.8 67 19.4 81 81 S 6 9 30.12 1020 10 16.09344 0 0
8:52 am 08:52 Mostly Sunny 77 25 67 19.4 71 71 SW 7 11 30.15 1021 10 16.09344 0 0
9:52 am 09:52 Mostly Sunny 81 27.2 68 20 65 65 Calm 30.15 1021 10 16.09344 0 0
10:52 am 10:52 Partly Cloudy 85 29.4 69 20.6 59 59 N 3 6 30.12 1020 10 16.09344 0 0
11:52 am 11:52 Partly Cloudy 87 30.6 70 21.1 57 57 VRB 3 6 30.12 1020 10 16.09344 0 0
12:52 pm 12:52 Partly Cloudy 88 31.1 69 20.6 54 54 undefined N/A 30.12 1020 10 16.09344 0 0
1:52 pm 13:52 Partly Cloudy 89 31.7 69 20.6 52 52 VRB 3 6 30.09 1019 10 16.09344 0 0
2:52 pm 14:52 Partly Cloudy 90 32.2 69 20.6 50 50 SW 8 13 30.06 1018 10 16.09344 0 0
3:52 pm 15:52 Mostly Cloudy 91 32.8 67 19.4 45 45 WSW 5 7 30.06 1018 10 16.09344 0 0
4:52 pm 16:52 Partly Cloudy 90 32.2 67 19.4 47 47 W 8 13 30.03 1017 10 16.09344 0 0
5:52 pm 17:52 Partly Cloudy 89 31.7 67 19.4 48 48 WSW 6 9 30.03 1017 10 16.09344 0 0
6:52 pm 18:52 Partly Cloudy 88 31.1 68 20 52 52 W 9 15 30 1016 10 16.09344 0 0
7:52 pm 19:52 Partly Cloudy 87 30.6 68 20 53 53 W 6 9 30 1016 10 16.09344 0 0
8:52 pm 20:52 Partly Cloudy 84 28.9 67 19.4 57 57 WSW 5 7 30 1016 10 16.09344 0 0
9:52 pm 21:52 Partly Cloudy 82 27.8 68 20 63 63 WSW 5 7 30.03 1017 10 16.09344 0 0
10:52 pm 22:52 Mostly Clear 80 26.7 68 20 67 67 W 7 11 30.03 1017 10 16.09344 0 0
11:52 pm 23:52 Mostly Clear 78 25.6 67 19.4 69 69 WSW 5 7 30.03 1017 10 16.09344 0 0

Powered by AerisWeather